Weather History for Farnborough, United Kingdom

Change the Weather History Date:

Tuesday, October 2, 2012

  Actual Average Record
Temperature  
Mean Temperature 56 °F -  
Max Temperature 63 °F - - ()
Min Temperature 48 °F - - ()
Degree Days  
Heating Degree Days 10    
Growing Degree Days 6 (Base 50)    
Moisture  
Dew Point 52 °F    
Average Humidity 84    
Maximum Humidity 94    
Minimum Humidity 58    
Precipitation  
Precipitation 0.04 in - - ()
Sea Level Pressure  
Sea Level Pressure 29.82 in    
Wind  
Wind Speed 11 mph ()    
Max Wind Speed 20 mph    
Max Gust Speed 37 mph    
Visibility 7.9 miles    
Events Rain    
T = Trace of Precipitation, MM = Missing Value Source: Averaged Metar Reports

Daily Weather History Graph

Daily Weather History Graph

Search for Another Location

Airport:

Trip Planner

Search our weather history database for the weather conditions in past years. The results will help you decide how hot, cold, wet, or windy it might be!

Date:

Astronomy

Oct. 02, 2012 Rise Set
Actual Time 7:05 AM BST 6:37 PM BST
Civil Twilight 6:32 AM BST 7:10 PM BST
Nautical Twilight 5:54 AM BST 7:49 PM BST
Astronomical Twilight 5:14 AM BST 8:28 PM BST
Moon 7:18 PM BST (10/2) 9:40 AM BST (10/2)
Length of Visible Light 12h 38m
Length of Day
11h 32m
Waning Gibbous, 95% of the Moon is Illuminated
Oct 2
Waning Gibbous
Oct 8
Last Quarter
Oct 15
New
Oct 22
First Quarter
Oct 29
Full

Hourly Weather History & Observations

Time (BST) Temp. Dew Point Humidity Pressure Visibility Wind Dir Wind Speed Gust Speed Precip Events Conditions
12:50 AM 50 °F 48 °F 92% 29.91 in 14 mi WSW 4.6 mph - -  
3:50 AM 52 °F 49 °F 85% 29.89 in 16 mi SW 8.1 mph - -   Scattered Clouds
6:50 AM 51 °F 49 °F 89% 29.87 in 18 mi SW 6.9 mph - -   Scattered Clouds
6:50 AM 51.8 °F 48.2 °F 88% 29.86 in 6.2 mi SSW 8.1 mph - N/A   Partly Cloudy
7:20 AM 51.8 °F 50.0 °F 94% 29.86 in - SSW 6.9 mph - N/A   Clear
7:50 AM 51.8 °F 50.0 °F 94% 29.86 in - South 5.8 mph - N/A   Clear
8:20 AM 53.6 °F 50.0 °F 88% 29.86 in - SSW 8.1 mph - N/A   Clear
8:50 AM 55.4 °F 50.0 °F 82% 29.86 in - SW 9.2 mph - N/A   Clear
9:20 AM 55.4 °F 50.0 °F 82% 29.86 in - SSW 11.5 mph - N/A   Clear
9:50 AM 56 °F 51 °F 80% 29.87 in 18 mi SW 10.4 mph - -   Mostly Cloudy
9:50 AM 55.4 °F 51.8 °F 88% 29.86 in - SSW 10.4 mph - N/A   Clear
10:20 AM 57.2 °F 51.8 °F 82% 29.86 in 6.2 mi SSW 13.8 mph - N/A   Partly Cloudy
10:50 AM 57.2 °F 51.8 °F 82% 29.86 in 6.2 mi SSW 18.4 mph - N/A   Scattered Clouds
11:20 AM 59.0 °F 51.8 °F 77% 29.86 in 6.2 mi SW 18.4 mph - N/A   Scattered Clouds
11:50 AM 59.0 °F 53.6 °F 82% 29.86 in 6.2 mi SSW 16.1 mph - N/A   Scattered Clouds
12:20 PM 60.8 °F 51.8 °F 72% 29.83 in 6.2 mi SSW 17.3 mph 31.1 mph N/A   Scattered Clouds
12:50 PM 63 °F 52 °F 58% 29.83 in 28 mi SW 18.4 mph - -   Partly Cloudy
12:50 PM 60.8 °F 51.8 °F 72% 29.83 in 6.2 mi SSW 19.6 mph - N/A   Scattered Clouds
1:20 PM 57.2 °F 53.6 °F 88% 29.83 in 4.3 mi WSW 19.6 mph 36.8 mph N/A Rain Rain Showers
1:50 PM 57.2 °F 53.6 °F 88% 29.83 in 6.2 mi SW 13.8 mph - N/A   Drizzle
2:20 PM 60.8 °F 55.4 °F 82% 29.80 in 6.2 mi SW 11.5 mph - N/A   Scattered Clouds
2:50 PM 59.0 °F 50.0 °F 72% 29.80 in 6.2 mi SW 17.3 mph 29.9 mph N/A   Scattered Clouds
3:20 PM 57.2 °F 53.6 °F 88% 29.80 in 6.2 mi SSW 15.0 mph - N/A   Scattered Clouds
3:50 PM 59 °F 53 °F 74% 29.80 in 22 mi SSW 16.1 mph - -   Scattered Clouds
3:50 PM 57.2 °F 53.6 °F 88% 29.80 in 6.2 mi SSW 18.4 mph - N/A   Scattered Clouds
4:20 PM 59.0 °F 53.6 °F 82% 29.77 in 6.2 mi SSW 17.3 mph - N/A   Scattered Clouds
4:50 PM 59.0 °F 51.8 °F 77% 29.77 in 6.2 mi SSW 17.3 mph - N/A   Scattered Clouds
5:20 PM 57.2 °F 51.8 °F 82% 29.77 in 6.2 mi SSW 16.1 mph - N/A Rain Light Rain
5:50 PM 57.2 °F 51.8 °F 82% 29.77 in 6.2 mi SSW 17.3 mph 31.1 mph N/A Rain Light Rain
6:20 PM 55.4 °F 51.8 °F 88% 29.77 in 6.2 mi SSW 16.1 mph - N/A Rain Rain
6:50 PM 55 °F 54 °F 93% 29.77 in 7 mi SW 16.1 mph - -   Mostly Cloudy
6:50 PM 55.4 °F 51.8 °F 88% 29.77 in 6.2 mi SSW 17.3 mph - N/A Rain Rain
7:20 PM 55.4 °F 53.6 °F 94% 29.74 in 6.2 mi SSW 13.8 mph - N/A Rain Rain
7:50 PM 55.4 °F 51.8 °F 88% 29.74 in 6.2 mi SSW 18.4 mph 31.1 mph N/A Rain Rain
8:20 PM 55.4 °F 51.8 °F 88% 29.74 in 6.2 mi SSW 18.4 mph - N/A Rain Rain
9:50 PM 56 °F 53 °F 84% 29.73 in 15 mi SW 19.6 mph - -   Partly Cloudy